Location: Bougoura
(13.1861°N, 5.0773°W)
Time: 03:53:31
(UTC+00:00)

Cosmos 1975 Rocket - Pass Details

Date: 18 September 2020
Orbit: 603 x 634 km, 82.5° (Epoch: 23 October)

Event Time Altitude Azimuth Distance (km) Brightness Sun altitude
Rises 19:14:45 0° 11° (N) 2,845 6.4 -14.4°
Reaches altitude 10° 19:17:09 10° 21° (NNE) 1,941 5.4 -15.0°
Maximum altitude 19:20:58 31° 84° (E) 1,053 3.7 -15.9°
Enters shadow 19:21:54 28° 109° (ESE) 1,125 3.8 -16.1°
